Regional Weather Roundup
Issued by NWS

Home | Current Version | Previous Version | Graphics & Text | Print | Product List | Glossary On
Versions: 1 2 3 4 5 6 7 8 9 10 11 12 13 14 15 16 17 18 19 20 21 22 23 24 25 26 27 28 29 30 31 32 33 34 35 36 37 38 39 40 41 42 43 44 45 46 47 48 49 50
874
ASUS43 KLSX 070607
RWRMO

WEATHER SUMMARY FOR MISSOURI
NATIONAL WEATHER SERVICE SPRINGFIELD MO
1200 AM CST WED DEC 07 2016

NOTE: "FAIR" INDICATES FEW OR NO CLOUDS BELOW 12,000 FEET WITH NO
       SIGNIFICANT WEATHER AND/OR OBSTRUCTIONS TO VISIBILITY.
       CURRENT SKY AND/OR WEATHER CONDITIONS ARE NOT AVAILABLE FOR
       CHILLICOTHE AND FARMINGTON.

MOZ001>031-035>038-043-044-053-054-070700-
...NORTHERN AND WESTERN MISSOURI...

CITY           SKY/WX    TMP DP  RH WIND       PRES   REMARKS
KANSAS CTY INT CLOUDY    29  15  56 NW5       30.14R WCI  24
6HR MIN TEMP:  27; 6HR MAX TEMP:  30;

KANSAS C DTWN  CLOUDY    33  16  49 NW3       30.15R
6HR MIN TEMP:  31; 6HR MAX TEMP:  35;

LEE`S SUMMIT   PTCLDY    32  15  49 N6        30.14S WCI  26
6HR MIN TEMP:  30; 6HR MAX TEMP:  32;

ST JOSEPH      CLOUDY    28  19  69 N6        30.16S WCI  22
6HR MIN TEMP:  24; 6HR MAX TEMP:  31;

CHILLICOTHE      N/A     30  15  53 NW5       30.15F WCI  25
6HR MIN TEMP:  27; 6HR MAX TEMP:  32;

KIRKSVILLE     CLOUDY    29  14  53 W10       30.13R WCI  20
6HR MIN TEMP:  29; 6HR MAX TEMP:  30;


$$
MOZ066>068-077>081-088>096-101>105-070700-
...SOUTHWEST MISSOURI...

CITY           SKY/WX    TMP DP  RH WIND       PRES   REMARKS
SPRINGFIELD    PTCLDY    31  19  61 N7        30.12R WCI  24
6HR MIN TEMP:  29; 6HR MAX TEMP:  35;

JOPLIN         PTCLDY    30  21  69 NE6       30.14S WCI  24
6HR MIN TEMP:  28; 6HR MAX TEMP:  35;

BRANSON        PTCLDY    30  25  80 CALM      30.12F

$$
MOZ032>034-039>042-045>050-055>058-069>072-070700-
...CENTRAL MISSOURI...

CITY           SKY/WX    TMP DP  RH WIND       PRES   REMARKS
COLUMBIA       CLEAR     30  16  56 W5        30.14R WCI  25
6HR MIN TEMP:  30; 6HR MAX TEMP:  34;

JEFFERSON CITY PTCLDY    28  20  71 NW3       30.15S
6HR MIN TEMP:  28; 6HR MAX TEMP:  35;

ROLLA          CLOUDY    29  20  69 NW6       30.10F WCI  23
6HR MIN TEMP:  29; 6HR MAX TEMP:  33;

SEDALIA        PTCLDY    30  15  53 NW3       30.15S
6HR MIN TEMP:  30; 6HR MAX TEMP:  33;

WHITEMAN AFB   PTCLDY    28  17  64 CALM      30.13S
WARRENSBURG    CLOUDY    30  19  64 CALM      30.15S
OSAGE BEACH    PTCLDY    27  20  75 NW3       30.16R

$$
MOZ051-052-059>065-070700-
...EAST CENTRAL MISSOURI...

CITY           SKY/WX    TMP DP  RH WIND       PRES   REMARKS
ST LOUIS INTL  CLOUDY    34  19  54 NW10      30.13R WCI  26
6HR MIN TEMP:  32; 6HR MAX TEMP:  39;

SPIRIT OF STL  MOCLDY    32  21  64 NW5       30.13S WCI  27
6HR MIN TEMP:  31; 6HR MAX TEMP:  34;

ST CHARLES     CLOUDY    34  18  52 NW9       30.13R WCI  27
6HR MIN TEMP:  34; 6HR MAX TEMP:  39;


$$
MOZ072>076-082>087-097>100-106>115-070700-
...SOUTH CENTRAL AND SOUTHEAST MISSOURI...

CITY           SKY/WX    TMP DP  RH WIND       PRES   REMARKS
CAPE GIRARDEAU CLOUDY    37  30  75 N7        30.11F
6HR MIN TEMP:  36; 6HR MAX TEMP:  42;

FARMINGTON     PTCLDY    33  23  66 NW7       30.11R WCI  27
6HR MIN TEMP:  33; 6HR MAX TEMP:  36;

POPLAR BLUFF   CLOUDY    38  34  85 CALM      30.13R
6HR MIN TEMP:  36; 6HR MAX TEMP:  42;

WEST PLAINS    CLOUDY    34  21  59 N6        30.10F WCI  29
6HR MIN TEMP:  34; 6HR MAX TEMP:  39;


$$



USA.gov is the U.S. government's official web portal to all federal, state and local government web resources and services.